RH
60 60 56 58 57 55 83 85 84 90 96 95 81 74 74 54 49 43 33 33 35 33 30 34 37 37 32 32 33 28 25 25 29 28 30 31 30 20 9 7 12 10 9
54 62 62 61 64 63 84 92 96 100 99 84 71 72 53 47 48 37 35 38 34 33 32 30 29 29 29 28 26 23 20 19 18 18 35 19 12 9 9 12 9 10 11
50 56 66 70 74 73 80 92 95 95 80 81 70 54 46 47 43 39 40 37 34 31 29 29 32 36 34 25 21 18 17 17 18 19 16 12 9 10 11 9 10 11 15
50 56 65 66 75 88 85 80 72 74 81 67 56 46 47 46 43 42 44 41 32 28 28 28 26 24 21 18 16 16 17 18 18 15 10 10 11 10 9 10 12 14 14
54 68 73 67 65 65 58 59 66 72 69 59 48 46 43 43 44 44 43 33 28 27 26 23 20 18 16 15 16 17 19 18 14 12 12 11 10 9 10 11 12 14 14
57 72 64 56 47 47 56 60 65 68 63 49 54 50 44 42 45 43 41 29 26 24 21 18 16 15 14 16 18 19 16 13 12 11 10 9 10 10 10 11 12 12 11
51 47 54 53 49 38 52 67 70 64 58 52 55 48 43 43 45 41 28 26 23 21 18 15 15 15 17 18 18 17 14 10 8 8 9 10 10 10 10 11 11 11 10
46 31 39 36 29 26 46 62 58 52 51 51 53 47 44 43 45 29 26 25 21 18 16 16 17 17 16 16 15 14 10 8 9 10 10 10 10 10 11 11 11 12 11
60 50 24 21 24 32 41 52 56 57 54 52 52 40 40 38 34 29 27 25 20 17 17 17 16 14 14 14 13 11 8 9 9 10 10 10 10 10 11 12 13 13 12
72 53 38 29 32 35 44 49 50 57 62 56 40 36 28 33 30 28 25 23 18 18 18 18 16 13 12 12 10 8 8 9 9 9 10 10 10 11 11 12 12 13 13
67 45 41 44 47 48 50 58 54 48 50 58 42 30 28 29 28 27 29 22 18 18 18 16 14 13 12 10 9 9 9 9 9 9 10 10 10 10 10 10 10 10 11
78 48 43 49 48 56 58 53 47 46 41 39 31 26 28 28 29 27 26 24 20 18 17 17 14 13 11 10 10 10 10 10 10 10 10 10 10 10 10 10 10 11 11
95 73 48 41 46 48 55 56 50 44 42 35 29 25 26 26 26 26 23 22 18 18 18 17 16 13 11 11 10 9 10 10 10 10 10 10 10 10 11 12 11 11 11
94 91 74 50 37 41 50 54 56 57 57 54 42 30 25 24 24 23 22 20 17 17 18 20 20 15 12 11 11 10 10 10 10 10 10 11 12 12 13 13 13 13 14
98 96 91 72 48 44 40 41 58 60 60 52 44 36 26 21 21 21 21 20 15 15 16 19 20 18 14 13 12 11 11 12 12 12 12 13 13 13 13 13 14 14 16
95 92 41 34 45 56 43 30 36 47 56 57 52 37 26 25 23 23 23 20 16 14 13 18 19 18 16 15 14 13 13 13 13 13 14 14 14 15 16 17 19 21 22
56 38 29 27 45 54 50 28 28 29 33 34 32 29 28 28 26 27 25 21 19 16 14 15 18 18 18 18 19 18 17 17 18 19 20 20 22 25 27 26 27 35 41
61 72 38 25 36 43 44 25 23 23 24 26 29 28 32 31 28 26 24 23 20 18 15 13 18 21 21 24 25 26 29 28 23 28 26 27 31 30 32 79 78 82 70
71 90 94 55 32 33 30 25 24 27 28 30 30 30 30 27 25 26 26 24 23 22 21 23 18 20 25 42 31 29 38 41 41 45 45 49 45 82 100 100 96 98 100
86 71 83 97 97 90 62 48 37 35 30 32 46 46 34 34 33 38 38 33 27 26 31 40 35 41 61 41 41 51 65 90 79 85 84 93 95 94 96 100 95 96 97
92 94 93 97 97 97 97 97 97 96 86 81 66 67 68 69 55 58 67 72 82 84 78 80 83 82 91 87 79 74 73 71 73 75 74 77 79 100 94 82 80 74 63
73 86 98 99 97 96 91 99 98 98 96 98 97 97 89 91 92 99 100 98 100 99 94 91 94 83 74 71 70 70 70 67 54 59 61 54 98 56 48 46 47 45 48
76 99 100 100 94 94 96 100 100 99 99 100 99 99 96 97 100 98 96 98 98 98 94 88 83 82 77 74 69 63 58 53 45 40 38 32 39 34 32 33 52 59 61
84 85 85 89 99 100 99 100 100 99 97 93 94 95 100 100 94 92 91 84 84 83 75 71 70 68 65 59 52 46 38 32 29 29 32 20 22 22 25 35 46 52 62
81 78 72 73 73 74 74 78 85 86 89 89 92 90 87 88 88 86 85 85 85 77 72 65 56 47 41 37 35 32 30 27 25 28 33 36 36 36 37 42 56 64 68
99 93 82 82 80 83 82 92 100 100 100 97 93 91 88 91 91 91 87 79 75 61 49 42 43 44 43 42 44 43 40 40 45 45 56 53 57 60 46 56 64 68 76
Wind_Speed
16 17 17 18 18 19 20 21 20 19 18 16 14 13 12 11 12 12 11 12 13 12 13 12 14 15 15 16 19 20 21 21 22 23 25 26 27 28 21 12 6 6 7
19 18 20 20 21 21 23 23 21 19 17 15 15 15 13 12 12 13 13 13 13 13 14 14 15 15 16 17 20 21 22 22 24 25 27 29 25 18 8 4 5 5 8
22 21 20 19 21 22 23 24 21 19 17 18 16 15 14 13 14 15 14 14 14 15 15 16 16 18 19 21 22 23 24 24 26 29 29 25 15 7 4 3 5 7 9
23 25 22 23 22 21 21 20 19 18 18 17 15 15 15 16 16 17 15 15 17 17 17 18 19 21 22 23 24 25 26 27 29 28 22 14 7 5 3 5 7 9 13
22 22 24 23 23 20 20 20 19 18 18 18 17 17 18 18 18 18 18 17 18 18 20 21 22 23 24 25 25 27 29 28 24 18 12 7 6 7 7 9 12 14 18
21 22 23 22 22 21 20 21 20 19 19 20 19 20 20 20 20 19 19 19 20 20 22 24 25 27 28 28 28 29 29 24 18 12 9 9 9 11 12 14 17 20 23
23 23 23 24 23 23 21 21 21 22 22 22 22 22 22 22 21 20 21 20 21 23 25 26 28 30 30 31 31 30 25 18 13 10 10 12 13 15 17 19 21 24 26
23 24 23 24 24 23 22 24 24 23 24 25 24 24 24 24 22 21 22 23 24 26 28 29 31 33 33 33 31 26 19 16 14 14 14 16 18 20 22 23 26 28 30
25 25 24 25 25 25 24 24 24 25 26 27 26 25 26 24 23 23 24 26 27 28 31 31 31 32 31 29 25 21 17 16 18 19 19 21 23 25 26 29 31 34 35
27 27 26 26 26 27 27 26 25 26 27 28 27 28 25 25 26 25 26 28 29 30 32 32 31 30 27 24 21 20 19 20 21 22 24 26 28 29 31 34 37 39 41
28 28 28 29 29 29 29 28 28 28 29 30 30 29 28 28 27 27 28 30 30 31 32 31 29 28 26 23 23 22 23 24 25 27 28 31 33 36 38 40 43 45 47
30 30 32 32 32 32 32 31 31 30 31 31 31 31 31 30 31 30 29 31 32 34 33 32 31 29 27 26 26 26 28 29 30 32 35 37 39 42 44 46 48 50 50
31 32 32 32 33 35 35 34 33 33 34 33 33 33 33 33 34 33 33 33 33 33 35 36 33 32 31 30 30 32 33 36 38 40 41 43 46 48 49 51 52 53 54
37 36 31 31 34 35 38 39 39 37 37 37 37 36 35 37 37 36 36 37 36 35 35 37 39 39 36 35 36 38 39 41 43 44 46 47 49 51 52 53 54 55 56
36 31 30 33 35 35 35 38 42 43 41 39 39 38 37 38 39 40 40 40 41 38 36 37 38 42 43 42 42 43 44 45 47 48 49 51 52 54 55 55 55 55 55
37 29 30 33 36 35 35 36 36 39 41 41 40 40 40 40 41 43 43 43 43 44 42 37 39 40 42 45 46 47 48 48 49 49 50 51 53 54 55 56 56 57 59
28 30 32 34 35 36 37 37 36 37 38 39 40 41 42 42 43 44 46 46 46 47 47 44 41 41 42 44 45 48 49 50 50 51 52 52 53 55 58 60 61 62 65
30 31 32 32 34 36 37 38 38 39 40 40 41 43 43 44 44 46 47 48 49 50 51 50 47 45 43 44 46 50 51 53 54 55 56 56 57 59 62 63 64 66 69
33 34 35 33 34 35 37 38 39 40 41 42 43 44 46 47 47 48 50 50 51 51 52 54 53 54 52 51 50 50 50 51 53 56 59 61 63 62 60 63 69 70 67
36 38 39 39 39 39 40 41 42 42 42 44 45 46 49 51 52 52 50 52 52 52 54 56 56 57 58 56 56 55 54 54 57 58 60 60 63 65 67 64 69 68 65
38 38 39 42 42 43 42 44 44 45 47 49 49 46 50 51 54 58 57 59 62 62 56 58 63 62 60 63 65 64 62 61 59 62 61 66 64 64 65 70 71 72 72
42 42 44 45 44 45 46 41 46 48 49 45 53 54 59 59 54 58 53 58 57 56 56 57 59 62 62 63 64 67 68 69 69 68 68 67 61 67 70 71 70 70 67
45 43 47 49 48 47 46 47 50 49 55 53 52 52 53 54 54 55 57 56 57 59 62 64 66 67 68 66 67 69 70 72 74 76 78 75 75 75 73 71 70 69 68
50 49 49 50 50 50 52 50 52 52 52 54 53 52 55 59 61 61 62 63 64 65 66 66 67 68 70 72 74 76 77 77 75 74 76 76 75 73 73 74 74 73 72
53 54 54 54 55 55 55 56 57 58 59 60 60 62 64 65 66 66 67 67 68 70 71 73 74 75 75 74 75 75 75 76 75 75 76 77 76 74 73 72 73 74 74
57 58 60 61 62 62 62 62 63 64 65 67 67 68 68 69 70 70 70 72 74 75 75 75 75 75 74 75 76 76 76 77 77 77 78 79 78 79 76 73 73 73 73
Wind_Direction
227 232 229 233 236 234 224 225 231 236 241 246 243 252 261 257 268 277 283 291 296 299 304 307 306 302 303 307 309 309 309 308 305 303 302 303 305 308 309 315 337 356 355
237 235 234 234 232 230 227 231 233 236 238 238 242 253 251 258 269 278 285 289 289 295 298 296 296 299 300 304 307 309 309 309 306 304 302 306 306 307 311 328 344 354 350
241 239 242 236 229 227 230 232 232 231 231 235 241 246 250 262 270 279 283 284 287 288 289 290 293 297 301 306 306 307 308 309 309 310 309 308 306 303 306 330 326 338 337
237 239 241 243 232 226 229 233 235 229 227 235 241 249 255 264 272 282 281 284 283 286 290 292 295 297 300 303 305 308 308 309 309 306 306 301 298 290 293 308 313 313 319
235 237 241 238 236 225 233 231 226 225 233 235 241 247 256 261 271 273 278 279 280 286 291 294 297 300 302 304 306 307 309 310 308 304 299 286 279 279 287 291 299 309 316
238 236 234 234 231 231 226 229 228 231 237 236 245 250 255 260 268 272 275 277 281 287 290 295 298 300 302 303 304 307 308 308 303 297 286 277 276 277 283 294 301 309 313
236 238 234 237 235 236 226 230 239 236 236 241 248 252 256 263 267 270 274 279 284 290 293 297 299 300 300 300 301 304 304 300 293 282 273 273 277 282 290 298 304 309 313
231 240 240 239 237 232 228 230 234 238 241 245 252 254 257 263 267 269 274 280 285 290 294 298 298 297 296 295 296 297 292 287 284 279 278 281 283 287 293 298 303 305 307
232 236 239 234 233 233 231 235 239 242 245 247 250 253 255 262 262 268 276 284 291 294 297 299 298 296 294 291 292 289 282 278 281 281 282 285 287 293 298 299 299 301 305
234 237 237 237 237 239 238 240 243 245 248 249 252 255 258 253 260 268 277 283 289 293 297 301 301 298 295 292 287 281 277 277 278 280 284 289 292 295 295 296 299 300 301
234 235 236 237 239 241 243 244 246 248 250 251 253 259 253 255 261 267 276 284 289 293 297 298 297 297 298 293 289 286 284 283 284 286 289 291 293 295 295 296 298 299 300
234 235 236 238 240 241 242 245 248 249 250 252 256 257 255 257 261 269 275 281 288 293 294 294 293 293 292 291 291 289 286 285 285 286 287 290 292 293 295 297 297 298 300
235 238 242 245 246 247 248 248 248 247 249 254 260 260 259 260 264 270 276 280 283 288 293 294 292 290 290 291 290 288 287 287 287 288 290 290 291 293 294 296 298 299 300
243 242 240 249 251 249 249 248 249 250 254 257 260 261 260 261 265 271 277 280 283 286 289 292 293 291 290 288 287 287 286 286 287 287 288 289 290 291 293 295 297 299 299
239 241 242 247 251 252 253 252 250 251 251 254 258 261 263 263 266 272 277 281 284 283 285 290 291 292 291 290 288 286 286 286 287 288 289 290 291 292 293 294 296 297 298
238 240 250 253 253 254 257 256 254 254 253 254 259 263 264 265 269 274 279 282 284 286 287 287 288 289 291 293 293 292 291 291 292 292 291 292 293 294 296 297 297 297 297
253 254 253 252 251 254 256 257 257 258 258 258 261 264 266 267 270 276 279 282 285 286 288 289 289 286 287 288 289 290 292 292 293 293 293 294 294 294 295 296 296 296 297
255 256 257 256 256 255 254 256 257 260 262 262 264 265 267 269 272 275 279 282 284 284 285 285 285 284 282 282 283 287 288 290 291 292 292 292 292 293 293 297 291 296 297
255 258 257 257 257 255 255 255 257 259 261 262 265 266 268 271 273 275 278 278 279 281 283 285 285 285 284 284 284 283 283 284 286 286 288 289 289 290 293 294 294 295 291
253 255 258 260 257 254 254 256 257 258 260 261 263 266 268 270 272 273 275 277 278 280 282 283 282 283 281 282 284 284 285 287 286 287 288 290 291 288 291 291 299 294 292
255 258 260 261 261 259 259 259 259 260 262 261 262 265 269 272 276 276 275 279 276 276 277 281 284 284 284 282 284 286 286 285 287 288 290 289 293 294 300 300 301 300 303
254 255 258 260 262 264 265 259 266 264 262 278 266 269 270 273 273 280 287 281 278 279 281 282 291 287 288 288 287 288 291 291 290 290 290 294 289 294 293 294 294 295 294
253 251 254 260 260 260 263 268 271 268 270 270 271 271 274 277 279 280 285 290 288 288 287 286 287 288 289 290 290 291 293 294 294 294 294 294 294 295 294 292 291 290 290
255 255 256 259 261 263 264 267 269 272 274 275 278 283 283 282 284 286 286 287 287 288 289 290 290 290 291 292 293 294 294 294 294 292 292 294 292 292 293 293 292 292 292
255 258 260 262 264 265 266 267 268 270 273 274 275 276 278 280 281 282 285 286 289 291 290 291 292 292 292 291 290 289 289 290 290 289 290 290 289 288 288 289 289 291 292
260 259 260 261 263 264 265 267 269 270 272 274 276 279 281 283 284 285 287 288 289 290 290 290 289 289 290 290 290 290 291 291 291 291 290 289 289 288 287 287 287 288 289